Weather in Sivashovka

Ukraine / Kherson District     46°15′15″N   34°25′51″E
В апреле 2022 года жителям России запретили посещать сайт meteo.paraplan.net по решению Генеральной прокуратуры. Аудитория сайта уменьшилась в 10 раз. Владельцы сайта не видят смысла в поддержке погодного сервера в таких условиях. Сайт будет закрыт в октябре.
temp.,
°C
wind,
m/s
gust,
m/s
humid.,
%
clouds,
%
prec.,
mm/h
press.,
hPa
HPBL,
m
3 october, mon
mon300:00+13wnw813731 0.0 1007816
03:00+12w712724 0.0 1008589
06:00+12w612751 0.0 1009479
09:00+15w710565 0.0 10111337
12:00+18w8114642 0.0 10111942
15:00+18w6945100 0.0 10121901
18:00+17wsw5856100 0.1 1012426
21:00+15ssw466895 0.7 1012123
4 october, tue
tue400:00+14sw47785 1.3 1012187
03:00+14sw46805 1.9 1012118
06:00+13w33805 0.1 101346
09:00+14nnw34675 0.2 1014283
12:00+18wnw33482 0.0 10151007
15:00+19w54432 0.0 10161512
18:00+17wsw575611 0.0 1017342
21:00+14nw36540 0.0 1019134
5 october, wed
wed500:00+12nnw35580 0.0 1021103
03:00+11nw33610 0.0 102242
06:00+10nw33620 0.0 102345
09:00+13wnw34500 0.0 1024267
12:00+17wnw453999 0.0 10251282
15:00+18w563888 0.0 10241818
18:00+17w454454 0.0 1025146
21:00+16nw234779 0.0 102678
6 october, thu
thu600:00+14w355629 0.0 102674
03:00+13wnw3458100 0.0 102684
06:00+13nnw2357100 0.0 102750
09:00+15nnw235356 0.0 1027229
12:00+18nw3341100 0.0 10271240
15:00+20w333620 0.0 10261354
18:00+17wsw34455 0.0 102687
21:00+15w346418 0.0 102776
7 october, fri
fri700:00+15wnw226218 0.0 102720
03:00+14nw225481 0.0 102613
06:00+13nnw225488 0.0 102619
09:00+16nnw2246100 0.0 1026168
12:00+20wnw223977 0.0 1025917
15:00+22n2335100 0.0 10241499
18:00+19ese124766 0.0 102428
21:00+17ene225513 0.0 102425